Weather History for Fort Benning, GA

Change the Weather History Date:

Tuesday, November 20, 2012

  Actual Average Record
Temperature  
Mean Temperature 56 °F -  
Max Temperature 67 °F 66 °F 78 °F (2011)
Min Temperature 44 °F 40 °F 27 °F (2008)
Degree Days  
Heating Degree Days 10    
Growing Degree Days 6 (Base 50)    
Moisture  
Dew Point 49 °F    
Average Humidity 88    
Maximum Humidity 100    
Minimum Humidity 53    
Precipitation  
Precipitation 0.00 in - - ()
Sea Level Pressure  
Sea Level Pressure 30.14 in    
Wind  
Wind Speed 1 mph (East)    
Max Wind Speed 5 mph    
Max Gust Speed -    
Visibility 7 miles    
Events      
Averages and records for this station are not official NWS values.
T = Trace of Precipitation, MM = Missing Value Source: NWS Daily Summary

Daily Weather History Graph

Daily Weather History Graph

Search for Another Location

Airport:

Trip Planner

Search our weather history database for the weather conditions in past years. The results will help you decide how hot, cold, wet, or windy it might be!

Date:

Astronomy

Nov. 20, 2012 Rise Set
Actual Time 7:14 AM EST 5:36 PM EST
Civil Twilight 6:47 AM EST 6:03 PM EST
Nautical Twilight 6:17 AM EST 6:33 PM EST
Astronomical Twilight 5:48 AM EST 7:02 PM EST
Moon 12:59 PM EST (11/20) No Moon Set
Length of Visible Light 11h 15m
Length of Day
10h 22m
Waxing Crescent, 51% of the Moon is Illuminated
Nov 20
Waxing Crescent
Nov 28
Full
Dec 6
Last Quarter
Dec 13
New
Dec 20
First Quarter

Hourly Weather History & Observations

Time (EST) Temp. Windchill Dew Point Humidity Pressure Visibility Wind Dir Wind Speed Gust Speed Precip Events Conditions
12:55 AM 57.4 °F - 53.1 °F 85% 30.17 in 10.0 mi Calm Calm - N/A   Overcast
1:55 AM 56.8 °F - 53.4 °F 88% 30.16 in 10.0 mi Calm Calm - N/A   Overcast
2:15 AM 55.4 °F - 53.6 °F 94% 30.16 in 10.0 mi Calm Calm - N/A   Overcast
2:21 AM 55.4 °F - 53.6 °F 94% 30.16 in 10.0 mi Calm Calm - N/A   Overcast
2:35 AM 55.4 °F - 53.6 °F 94% 30.16 in 10.0 mi Calm Calm - N/A   Overcast
2:47 AM 55.4 °F - 53.6 °F 94% 30.16 in 10.0 mi Calm Calm - N/A   Overcast
2:52 AM 55.4 °F - 53.6 °F 94% 30.15 in 10.0 mi Calm Calm - N/A   Overcast
2:55 AM 55.9 °F - 53.1 °F 90% 30.15 in 10.0 mi Calm Calm - N/A   Overcast
3:05 AM 55.4 °F - 53.6 °F 94% 30.16 in 10.0 mi Calm Calm - N/A   Overcast
3:06 AM 55.4 °F - 53.6 °F 94% 30.16 in 10.0 mi Calm Calm - N/A   Overcast
3:08 AM 55.4 °F - 53.6 °F 94% 30.16 in 10.0 mi Calm Calm - N/A   Overcast
3:14 AM 55.4 °F - 53.6 °F 94% 30.16 in 10.0 mi Calm Calm - N/A   Overcast
3:55 AM 55.9 °F - 53.4 °F 91% 30.15 in 10.0 mi Calm Calm - N/A   Overcast
4:10 AM 55.4 °F - 53.6 °F 94% 30.15 in 10.0 mi Calm Calm - N/A   Overcast
4:55 AM 55.4 °F - 53.4 °F 93% 30.15 in 10.0 mi Calm Calm - N/A   Overcast
5:55 AM 55.9 °F - 53.4 °F 91% 30.16 in 10.0 mi NW 4.6 mph - N/A   Overcast
6:55 AM 55.0 °F - 53.1 °F 93% 30.16 in 10.0 mi Calm Calm - N/A   Overcast
7:55 AM 54.9 °F - 53.1 °F 94% 30.17 in 10.0 mi Calm Calm - N/A   Mostly Cloudy
8:55 AM 59.9 °F - 53.6 °F 80% 30.19 in 10.0 mi Calm Calm - N/A   Clear
9:55 AM 63.1 °F - 52.2 °F 67% 30.19 in 10.0 mi Calm Calm - N/A   Scattered Clouds
10:41 AM 64.4 °F - 51.8 °F 64% 30.19 in 10.0 mi Calm Calm - N/A   Overcast
10:43 AM 64.4 °F - 51.8 °F 64% 30.20 in 10.0 mi Calm Calm - N/A   Overcast
10:45 AM 64.4 °F - 51.8 °F 64% 30.19 in 10.0 mi Calm Calm - N/A   Overcast
10:55 AM 64.8 °F - 52.9 °F 65% 30.19 in 10.0 mi Calm Calm - N/A   Overcast
10:58 AM 64.4 °F - 53.6 °F 68% 30.19 in 10.0 mi Calm Calm - N/A   Overcast
11:00 AM 64.4 °F - 53.6 °F 68% 30.19 in 10.0 mi NE 3.5 mph - N/A   Overcast
11:33 AM 64.4 °F - 53.6 °F 68% 30.18 in 10.0 mi NNW 3.5 mph - N/A   Overcast
11:55 AM 64.2 °F - 52.9 °F 67% 30.17 in 10.0 mi NNW 3.5 mph - N/A   Overcast
12:00 PM 64.4 °F - 53.6 °F 68% 30.16 in 10.0 mi NNW 4.6 mph - N/A   Overcast
12:55 PM 66.0 °F - 52.7 °F 62% 30.12 in 10.0 mi Variable 4.6 mph - N/A   Mostly Cloudy
1:55 PM 65.8 °F - 52.2 °F 61% 30.11 in 10.0 mi Variable 3.5 mph - N/A   Mostly Cloudy
2:55 PM 67.6 °F - 51.6 °F 56% 30.07 in 10.0 mi Calm Calm - N/A   Partly Cloudy
3:55 PM 67.1 °F - 50.7 °F 56% 30.07 in 10.0 mi Calm Calm - N/A   Mostly Cloudy
4:55 PM 67.1 °F - 49.6 °F 53% 30.07 in 10.0 mi WNW 4.6 mph - N/A   Partly Cloudy
5:55 PM 59.0 °F - 48.9 °F 69% 30.08 in 10.0 mi Calm Calm - N/A   Clear
6:55 PM 54.5 °F - 49.5 °F 83% 30.09 in 10.0 mi Calm Calm - N/A   Clear
7:55 PM 51.1 °F - 48.4 °F 90% 30.11 in 10.0 mi Calm Calm - N/A   Clear
8:55 PM 48.2 °F - 47.1 °F 96% 30.11 in 10.0 mi SE 3.5 mph - N/A   Clear
9:55 PM 47.5 °F - 47.3 °F 99% 30.12 in 10.0 mi Calm Calm - N/A   Clear
10:26 PM 44.6 °F - 44.6 °F 100% 30.12 in 2.0 mi Calm Calm - N/A   Clear
10:27 PM 44.6 °F - 44.6 °F 100% 30.12 in 1.8 mi Calm Calm - N/A   Clear
10:29 PM 44.6 °F - 44.6 °F 100% 30.12 in 1.5 mi Calm Calm - N/A   Clear
10:30 PM 44.6 °F - 44.6 °F 100% 30.12 in 1.2 mi Calm Calm - N/A   Clear
10:31 PM 44.6 °F - 44.6 °F 100% 30.12 in 1.2 mi Calm Calm - N/A   Clear
10:32 PM 44.6 °F - 44.6 °F 100% 30.12 in 1.2 mi Calm Calm - N/A   Clear
10:35 PM 44.6 °F 43.1 °F 44.6 °F 100% 30.12 in 1.5 mi SE 3.5 mph - N/A   Clear
10:36 PM 44.6 °F - 44.6 °F 100% 30.12 in 1.8 mi Calm Calm - N/A   Clear
10:37 PM 44.6 °F - 44.6 °F 100% 30.12 in 2.0 mi Calm Calm - N/A   Clear
10:38 PM 44.6 °F - 44.6 °F 100% 30.12 in 2.0 mi Calm Calm - N/A   Clear
10:40 PM 44.6 °F 43.1 °F 44.6 °F 100% 30.12 in 3.0 mi SE 3.5 mph - N/A   Clear
10:47 PM 44.6 °F - 44.6 °F 100% 30.12 in 7.0 mi Calm Calm - N/A   Clear
10:55 PM 45.1 °F - 45.0 °F 99% 30.12 in 7.0 mi Calm Calm - N/A   Clear
11:06 PM 44.6 °F 43.1 °F 44.6 °F 100% 30.12 in 4.0 mi SE 3.5 mph - N/A   Clear
11:12 PM 44.6 °F 43.1 °F 44.6 °F 100% 30.12 in 2.5 mi SE 3.5 mph - N/A   Clear
11:21 PM 44.6 °F 43.1 °F 44.6 °F 100% 30.12 in 3.0 mi SE 3.5 mph - N/A   Clear
11:40 PM 44.6 °F - 44.6 °F 100% 30.11 in 3.0 mi SSE 2.3 mph - N/A   Smoke
11:43 PM 44.6 °F - 44.6 °F 100% 30.12 in 2.5 mi Calm Calm - N/A   Clear
11:44 PM 44.6 °F - 44.6 °F 100% 30.12 in 2.0 mi Calm Calm - N/A   Clear
11:45 PM 44.6 °F - 44.6 °F 100% 30.12 in 1.8 mi Calm Calm - N/A   Clear
11:50 PM 44.6 °F - 44.6 °F 100% 30.12 in 1.8 mi Calm Calm - N/A   Clear
11:51 PM 44.6 °F - 44.6 °F 100% 30.12 in 1.5 mi Calm Calm - N/A   Clear
11:53 PM 44.6 °F - 44.6 °F 100% 30.12 in 1.8 mi Calm Calm - N/A   Clear
11:54 PM 44.6 °F - 44.6 °F 100% 30.12 in 2.0 mi Calm Calm - N/A   Clear
11:55 PM 45.0 °F - 44.8 °F 99% 30.12 in 2.0 mi Calm Calm - N/A   Clear